Hourly Weather Challakere

Today, 14 June, Monday

Time Temperature Precipitation Wind Pressure Humidity
00:00 +24°C° 0 mm 10 mps 706 mmHg 79%
01:00 +24°C° 0 mm 10 mps 705 mmHg 80%
02:00 +24°C° 0 mm 10 mps 705 mmHg 80%
03:00 +24°C° 0 mm 10 mps 705 mmHg 80%
04:00 +24°C° 0 mm 9 mps 705 mmHg 81%
05:00 +24°C° 0 mm 9 mps 704 mmHg 81%
06:00 +24°C° 0 mm 9 mps 705 mmHg 79%
07:00 +24°C° 0 mm 9 mps 705 mmHg 78%
08:00 +26°C° 0 mm 9 mps 706 mmHg 77%
09:00 +27°C° 0 mm 10 mps 706 mmHg 72%
10:00 +28°C° 0 mm 11 mps 706 mmHg 68%
11:00 +29°C° 0 mm 11 mps 706 mmHg 63%
12:00 +29°C° 0.2 mm 11 mps 705 mmHg 62%
13:00 +29°C° 0.2 mm 12 mps 705 mmHg 62%
14:00 +29°C° 0.2 mm 12 mps 704 mmHg 61%
15:00 +28°C° 0.1 mm 11 mps 704 mmHg 66%
16:00 +27°C° 0.1 mm 11 mps 704 mmHg 71%
17:00 +26°C° 0.1 mm 10 mps 704 mmHg 76%
18:00 +24°C° 0.8 mm 10 mps 705 mmHg 77%
19:00 +24°C° 0.8 mm 9 mps 705 mmHg 79%
20:00 +24°C° 0.8 mm 9 mps 705 mmHg 80%
21:00 +24°C° 0.1 mm 10 mps 705 mmHg 80%
22:00 +24°C° 0.1 mm 10 mps 705 mmHg 81%
23:00 +24°C° 0.1 mm 10 mps 705 mmHg 81%

Tomorrow, 15 June, Tuesday

Time Temperature Precipitation Wind Pressure Humidity
00:00 +24°C° 0.1 mm 10 mps 705 mmHg 81%
01:00 +23°C° 0.1 mm 10 mps 704 mmHg 81%
02:00 +23°C° 0.1 mm 10 mps 704 mmHg 81%
03:00 +23°C° 0.1 mm 9 mps 704 mmHg 81%
04:00 +23°C° 0.1 mm 9 mps 704 mmHg 81%
05:00 +24°C° 0.1 mm 9 mps 704 mmHg 82%
06:00 +24°C° 0.2 mm 9 mps 705 mmHg 80%
07:00 +24°C° 0.2 mm 9 mps 705 mmHg 79%
08:00 +24°C° 0.2 mm 9 mps 705 mmHg 78%
09:00 +26°C° 0 mm 9 mps 705 mmHg 75%
10:00 +26°C° 0 mm 9 mps 705 mmHg 72%
11:00 +27°C° 0 mm 9 mps 705 mmHg 69%
12:00 +27°C° 0 mm 10 mps 705 mmHg 65%
13:00 +28°C° 0 mm 11 mps 704 mmHg 62%
14:00 +29°C° 0 mm 12 mps 704 mmHg 58%
15:00 +28°C° 0 mm 12 mps 704 mmHg 61%
16:00 +28°C° 0 mm 11 mps 704 mmHg 63%
17:00 +27°C° 0 mm 10 mps 704 mmHg 65%
18:00 +27°C° 0 mm 10 mps 704 mmHg 68%
19:00 +26°C° 0 mm 10 mps 705 mmHg 71%
20:00 +26°C° 0 mm 9 mps 705 mmHg 74%
21:00 +26°C° 0 mm 9 mps 705 mmHg 74%
22:00 +26°C° 0 mm 9 mps 705 mmHg 74%
23:00 +26°C° 0 mm 9 mps 705 mmHg 75%

Day after tomorrow, 16 June, Wednesday

Time Temperature Precipitation Wind Pressure Humidity
00:00 +24°C° 0 mm 9 mps 705 mmHg 75%
01:00 +24°C° 0 mm 9 mps 705 mmHg 75%
02:00 +24°C° 0 mm 10 mps 704 mmHg 76%
03:00 +24°C° 0.2 mm 9 mps 704 mmHg 77%
04:00 +24°C° 0.2 mm 9 mps 704 mmHg 79%
05:00 +24°C° 0.2 mm 8 mps 705 mmHg 81%
06:00 +24°C° 0.1 mm 8 mps 705 mmHg 79%
07:00 +24°C° 0.1 mm 9 mps 706 mmHg 78%
08:00 +26°C° 0.1 mm 9 mps 706 mmHg 76%
09:00 +27°C° 0.2 mm 10 mps 706 mmHg 72%
10:00 +28°C° 0.2 mm 10 mps 706 mmHg 68%
11:00 +29°C° 0.2 mm 11 mps 707 mmHg 63%
12:00 +31°C° 0.1 mm 11 mps 706 mmHg 60%
13:00 +31°C° 0.1 mm 12 mps 706 mmHg 57%
14:00 +32°C° 0.1 mm 12 mps 705 mmHg 54%
15:00 +31°C° 0 mm 12 mps 706 mmHg 57%
16:00 +29°C° 0 mm 11 mps 706 mmHg 60%
17:00 +29°C° 0 mm 11 mps 706 mmHg 63%
18:00 +28°C° 0 mm 10 mps 706 mmHg 67%
19:00 +27°C° 0 mm 9 mps 707 mmHg 71%
20:00 +26°C° 0 mm 9 mps 707 mmHg 74%
21:00 +26°C° 0 mm 8 mps 707 mmHg 76%
22:00 +26°C° 0 mm 8 mps 707 mmHg 77%
23:00 +24°C° 0 mm 8 mps 707 mmHg 78%

17 June, Thursday

Time Temperature Precipitation Wind Pressure Humidity
00:00 +24°C° 0 mm 8 mps 707 mmHg 78%
01:00 +24°C° 0 mm 8 mps 706 mmHg 79%
02:00 +24°C° 0 mm 8 mps 706 mmHg 79%
03:00 +24°C° 0 mm 8 mps 706 mmHg 79%
04:00 +23°C° 0 mm 8 mps 706 mmHg 80%
05:00 +23°C° 0 mm 8 mps 706 mmHg 80%
06:00 +24°C° 0 mm 9 mps 707 mmHg 76%
07:00 +26°C° 0 mm 10 mps 707 mmHg 72%
08:00 +27°C° 0 mm 10 mps 707 mmHg 68%
09:00 +28°C° 0 mm 11 mps 707 mmHg 63%
10:00 +31°C° 0 mm 11 mps 707 mmHg 57%
11:00 +32°C° 0 mm 11 mps 707 mmHg 52%
12:00 +32°C° 0 mm 11 mps 707 mmHg 50%
13:00 +33°C° 0 mm 12 mps 706 mmHg 48%
14:00 +33°C° 0 mm 12 mps 706 mmHg 46%
15:00 +33°C° 0 mm 11 mps 706 mmHg 49%
16:00 +32°C° 0 mm 11 mps 706 mmHg 51%
17:00 +31°C° 0 mm 11 mps 706 mmHg 53%
18:00 +29°C° 0 mm 10 mps 707 mmHg 59%
19:00 +28°C° 0 mm 9 mps 707 mmHg 65%
20:00 +27°C° 0 mm 9 mps 708 mmHg 71%
21:00 +26°C° 0 mm 8 mps 708 mmHg 71%
22:00 +26°C° 0 mm 8 mps 708 mmHg 71%
23:00 +26°C° 0 mm 8 mps 708 mmHg 71%

18 June, Friday

Time Temperature Precipitation Wind Pressure Humidity
00:00 +24°C° 0 mm 8 mps 707 mmHg 73%
01:00 +24°C° 0 mm 7 mps 707 mmHg 74%
02:00 +24°C° 0 mm 7 mps 706 mmHg 75%
03:00 +24°C° 0 mm 7 mps 706 mmHg 76%
04:00 +24°C° 0 mm 7 mps 706 mmHg 78%
05:00 +23°C° 0 mm 7 mps 707 mmHg 79%
06:00 +24°C° 0 mm 8 mps 707 mmHg 74%
07:00 +26°C° 0 mm 9 mps 707 mmHg 70%
08:00 +27°C° 0 mm 10 mps 708 mmHg 65%
09:00 +29°C° 0 mm 10 mps 708 mmHg 59%
10:00 +31°C° 0 mm 10 mps 708 mmHg 54%
11:00 +32°C° 0 mm 10 mps 708 mmHg 48%
12:00 +33°C° 0 mm 10 mps 708 mmHg 47%
13:00 +33°C° 0 mm 11 mps 707 mmHg 45%
14:00 +34°C° 0 mm 11 mps 707 mmHg 44%
15:00 +33°C° 0 mm 10 mps 707 mmHg 46%
16:00 +32°C° 0 mm 10 mps 707 mmHg 47%
17:00 +32°C° 0 mm 10 mps 707 mmHg 49%
18:00 +29°C° 0 mm 9 mps 708 mmHg 55%
19:00 +28°C° 0 mm 9 mps 708 mmHg 61%
20:00 +27°C° 0 mm 8 mps 709 mmHg 66%
21:00 +26°C° 0 mm 8 mps 709 mmHg 67%
22:00 +26°C° 0 mm 7 mps 709 mmHg 69%
23:00 +26°C° 0 mm 7 mps 709 mmHg 70%

19 June, Saturday

Time Temperature Precipitation Wind Pressure Humidity
00:00 +24°C° 0 mm 7 mps 708 mmHg 71%
01:00 +24°C° 0 mm 7 mps 708 mmHg 72%
02:00 +24°C° 0 mm 7 mps 708 mmHg 73%
03:00 +24°C° 0 mm 7 mps 708 mmHg 74%
04:00 +24°C° 0 mm 7 mps 708 mmHg 75%
05:00 +23°C° 0 mm 6 mps 708 mmHg 76%
06:00 +24°C° 0 mm 7 mps 708 mmHg 72%
07:00 +26°C° 0 mm 8 mps 709 mmHg 68%
08:00 +27°C° 0 mm 9 mps 709 mmHg 64%
09:00 +29°C° 0 mm 9 mps 709 mmHg 58%
10:00 +31°C° 0 mm 9 mps 709 mmHg 52%
11:00 +33°C° 0 mm 10 mps 709 mmHg 46%
12:00 +33°C° 0 mm 10 mps 709 mmHg 44%
13:00 +34°C° 0 mm 10 mps 708 mmHg 42%
14:00 +36°C° 0 mm 10 mps 708 mmHg 40%
15:00 +34°C° 0 mm 10 mps 708 mmHg 42%
16:00 +33°C° 0 mm 10 mps 708 mmHg 45%
17:00 +32°C° 0 mm 10 mps 708 mmHg 48%
18:00 +31°C° 0 mm 9 mps 708 mmHg 54%
19:00 +29°C° 0 mm 8 mps 709 mmHg 60%
20:00 +28°C° 0 mm 8 mps 709 mmHg 66%
21:00 +27°C° 0 mm 8 mps 709 mmHg 69%
22:00 +26°C° 0 mm 7 mps 709 mmHg 72%
23:00 +26°C° 0 mm 7 mps 709 mmHg 75%
Show more

We Need Your Consent

Meteoprog and our Service Providers may store and access personal data such as cookies, device identifiers or other similar technologies on your device and process such data to personalise content and ads, as well as provide social media features and to analyse the traffic.

  • Store and/or access information on your device

    Cookies, device identifiers or other information can be stored or accessed on your device for the purposes indicated above.

  • Personalised ads and content, ad and content measurement, audience insights, and products development

    Ads and content can be personalised based on a profile. More data can be added to better personalise ads and content. Ad and content performance can be measured. Insights about the audience who saw the ads and content can be derived. Such data can be used to develop or improve user’s experience, systems and software.

By clicking ‘I Agree’ you will allow the use of indicated cookies, device identifiers, web beacons or other similar technologies. Your settings can be changed in the browser on your device.

For certain purposes, legitimate interests may be relied on, rather than consent. You can read more about this in our Privacy and Cookie Policy.